Regional Weather Roundup
Issued by NWS

Home | Current Version | Previous Version | Graphics & Text | Print | Product List | Glossary On
Versions: 1 2 3 4 5 6 7 8 9 10 11 12 13 14 15 16 17 18 19 20 21 22 23 24 25 26 27 28 29 30 31 32 33 34 35 36 37 38 39 40 41 42 43 44 45 46 47 48 49 50
000
ASUS43 KOAX 201110
RWRNE

WEATHER ROUNDUP FOR NEBRASKA
NATIONAL WEATHER SERVICE OMAHA NE
600 AM CDT SAT SEP 20 2014

NOTES: SATELLITE DATA IS BEING USED TO AUGMENT CLOUD COVER ABOVE
       12000 FEET.
       "FAIR" INDICATES FEW OR NO CLOUDS BELOW 12,000 FEET WITH NO
       SIGNIFICANT WEATHER AND/OR OBSTRUCTIONS TO VISIBILITY.

  * THESE STATIONS DO NOT REPORT WEATHER SUCH AS RAIN...SNOW OR FOG.

NEZ001>004-019>022-054>056-201200-
NEBRASKA PANHANDLE

CITY           SKY/WX    TMP DP  RH WIND       PRES   REMARKS
SCOTTSBLUFF    CLEAR     54  48  80 NW7       30.11R
ALLIANCE       MOCLDY    54  49  83 N3        30.08R
CHADRON        CLEAR     50  48  93 CALM      30.06R
KIMBALL        CLEAR     55  49  79 N9        30.12R
SIDNEY         CLEAR     60  51  72 N13       30.09R
$$

NEZ057>060-069>072-079>082-201200-
SOUTHWEST NEBRASKA

CITY           SKY/WX    TMP DP  RH WIND       PRES   REMARKS
NORTH PLATTE   CLEAR     62  55  77 NE15      29.95R
IMPERIAL       CLEAR     61  55  81 N9        29.97R
LEXINGTON      CLEAR     62  59  91 N3        29.92R
MCCOOK         CLEAR     65  61  87 W7        29.91R
OGALLALA       CLEAR     65  55  69 N13       30.00R
$$

NEZ005>010-023>029-035>040-094-201200-
NORTH CENTRAL NEBRASKA

CITY           SKY/WX    TMP DP  RH WIND       PRES   REMARKS
VALENTINE      PTCLDY    53  51  93 W5        29.99R
AINSWORTH      CLEAR     59  51  76 NW6       29.98R
BROKEN BOW     CLEAR     62  56  80 N8        29.95R
O`NEILL        CLOUDY    63  58  84 NW3       29.95R
ORD            CLEAR     60  57  89 N6        29.91R
THEDFORD       PTCLDY    62  53  73 N5        30.00R
$$

NEZ041-046>049-061>064-073>077-083>087-201200-
SOUTH CENTRAL NEBRASKA

CITY           SKY/WX    TMP DP  RH WIND       PRES   REMARKS
GRAND ISLAND   PTCLDY    65  60  84 S5        29.90R
AURORA         MOCLDY    66  62  86 CALM      29.89S
HASTINGS       MOCLDY    66  59  78 N5        29.90R
HEBRON         PTCLDY    68  61  78 SW7       29.88S
HOLDREGE       PTCLDY    65  60  84 CALM      29.91R
KEARNEY *      PTCLDY    64  59  82 CALM      29.92R
YORK           MOCLDY    66  64  94 CALM      29.89F
$$

NEZ011>018-030>034-042>045-201200-
NORTHEAST NEBRASKA

CITY           SKY/WX    TMP DP  RH WIND       PRES   REMARKS
NORFOLK        PTCLDY    65  63  93 NW8       29.88R
ALBION         PTCLDY    65  59  79 N8        29.90R
BLAIR          CLOUDY    71  66  84 S3        29.84F
COLUMBUS *     CLOUDY    64  61  88 W3        29.88R
FREMONT        CLOUDY    71  65  79 SW7       29.85R
TEKAMAH        CLOUDY    70  66  87 VRB7      29.85R
WAYNE          MOCLDY    63  61  94 CALM      29.87R
$$

NEZ050>053-065>068-078-088>093-201200-
SOUTHEAST NEBRASKA

CITY           SKY/WX    TMP DP  RH WIND       PRES   REMARKS
LINCOLN        TSTM      70  65  84 S10       29.89F
OMAHA EPPLEY   CLOUDY    71  68  90 S10       29.87R
BEATRICE       MOCLDY    69  64  84 SW6       29.89R
FALLS CITY     PTCLDY    70  67  90 SW12      29.89R
NEBRASKA CITY    N/A     70  65  84 N5        29.95R
PLATTSMOUTH    TSTM      69  65  88 S14G25    29.88F
$$

NEZ044-045-051>053-067-201200-
OMAHA AREA

CITY           SKY/WX    TMP DP  RH WIND       PRES   REMARKS
OMAHA EPPLEY   CLOUDY    71  68  90 S10       29.87R
BLAIR          CLOUDY    71  66  84 S3        29.84F
FREMONT        CLOUDY    71  65  79 SW7       29.85R
MILLARD        CLOUDY    70  67  88 SW3       29.86S THUNDER
OFFUTT AFB     CLOUDY    70  70 100 VRB6      29.85F
PLATTSMOUTH    TSTM      69  65  88 S14G25    29.88F
WAHOO          FAIR      70  63  79 W9        29.84S
$$



USA.gov is the U.S. government's official web portal to all federal, state and local government web resources and services.